Location: Newark
(35.8833°N, 14.5000°E)
Time: 21:41:06
(UTC+00:00)

Vanguard 1 Rocket - Visible Passes

Search period start: 23 January 2021 00:00
Search period end: 02 February 2021 00:00
Orbit: 655 x 4221 km, 34.3° (Epoch: 23 January)

Date Brightness Start Highest point End Pass type
(mag) Time Alt. Az. Time Alt. Az. Time Alt. Az.
23 Jan 11.0 18:35:12 10° SSW 18:36:24 10° SSW 18:37:40 10° SSW visible
24 Jan 10.5 17:20:38 10° WSW 17:24:31 15° SSW 17:29:37 10° S visible
28 Jan 11.6 05:18:59 10° S 05:23:11 12° SSE 05:26:45 10° SE visible
30 Jan 11.3 05:17:07 10° S 05:26:28 18° SSE 05:33:01 10° ESE visible
31 Jan 11.7 04:08:02 10° SSE 04:13:40 12° SSE 04:18:23 10° SE visible
01 Feb 11.0 05:17:04 10° SSW 05:29:41 26° SSE 05:37:33 10° ESE visible
